Powrót do katalogu

STARLINK-35633

AktywnyŁącznośćVLEO
NORAD 66162·PAYLOAD·🇺🇸 United States

Wystrzelony Oct 25, 2025 z Cape Canaveral Space Force Station

Loading…

Następne Przeloty (najbliższe 24 godziny)

TLE

ŚwieżeSource: CelesTrak SupGP

Epoka: Sep 14, 2026, 20:50 UTC

1 66162C 25240S   26257.86854167  .00053207  00000+0  15723-2 0  2574
2 66162  53.1570 261.8812 0001289  91.5450 269.7107 15.34357465    12

Śledź STARLINK-35633 w czasie rzeczywistym z AllMySat

Download on the App Store